Location: Gloden
(48.4833°N, 15.3167°E)
Time: 01:24:06
(UTC+00:00)

GEOS 3 Rocket - Pass Details

Date: 15 December 2019
Orbit: 782 x 837 km, 115.0° (Epoch: 28 January)

Event Time Altitude Azimuth Distance (km) Brightness Sun altitude
Rises 04:59:15 0° 162° (SSE) 3,258 7.3 -16.3°
Reaches altitude 10° 05:01:39 10° 170° (S) 2,337 6.4 -15.9°
Maximum altitude 05:06:21 39° 238° (WSW) 1,182 4.2 -15.2°
Enters shadow 05:09:05 22° 293° (WNW) 1,672 4.6 -14.7°
